Tracking 28792 objects as of 25-Apr-2024
HD Live streaming from Space Station
objects crossing your sky now

YZ-1 R/B

Track YZ-1 R/B now!


NORAD ID: 43210
Int'l Code: 2018-018D
Perigee: 22,175.4 km
Apogee: 22,376.2 km
Inclination: 55.8 °
Period: 804.2 minutes
Semi major axis: 28646 km
RCS: Unknown
Launch date: February 12, 2018
Source: People's Republic of China (PRC)
Launch site: Xichang Space Center, China (XSC)

Note: This is a ROCKET BODY
Your satellite tracking list
Your tracking list is empty




NASA's NSSDC Master Catalog

Two Line Element Set (TLE):
1 43210U 18018D   24115.28679838  .00000035  00000-0  00000-0 0  9990
2 43210  55.7681  95.0180 0035045  96.1214 264.2579  1.79055562 40523
Source of the keplerian elements: AFSPC